Printer-friendly version
Follow the MPC on Twitter Follow the MPC on Facebook The MPC blog
Minor Planet Center

MPEC 2006-F21 : 2006 FE

The following Minor Planet Electronic Circular may be linked-to from your own Web pages, but must not otherwise be redistributed electronically.

A form allowing access to any MPEC is at the bottom of this page.


Read MPEC 2006-F20 Read MPEC 2006-F22


M.P.E.C. 2006-F21                                Issued 2006 Mar. 23, 17:47 UT

     The Minor Planet Electronic Circulars contain information on unusual
         minor planets and routine data on comets.  They are published
   on behalf of Commission 20 of the International Astronomical Union by the
          Minor Planet Center, Smithsonian Astrophysical Observatory,
                          Cambridge, MA 02138, U.S.A.

                  Supported in part by the Brinson Foundation
                  Supported in part by the TABASGO Foundation
             Prepared using the Tamkin Foundation Computer Network

                              MPC@CFA.HARVARD.EDU
          URL http://cfa-www.harvard.edu/iau/mpc.html  ISSN 1523-6714

                                    2006 FE

Observations:
     K06F00E* C2006 03 22.31132 10 51 49.09 -08 34 17.0          17.6   EF021704
     K06F00E  C2006 03 22.32272 10 51 50.92 -08 32 41.6          17.5   EF021704
     K06F00E  C2006 03 22.33422 10 51 52.75 -08 31 10.7          17.6   EF021704
     K06F00E  C2006 03 23.01219 10 53 50.48 -07 03 27.2                 EF021J95
     K06F00E  C2006 03 23.01413 10 53 50.76 -07 03 12.3                 EF021J95
     K06F00E  C2006 03 23.01611 10 53 51.07 -07 02 57.7          17.2 R EF021J95
     K06F00E  C2006 03 23.10554 10 54 06.01 -06 50 47.5          16.7 R EF021I77
     K06F00E  C2006 03 23.10962 10 54 06.59 -06 50 17.4          16.8 R EF021I77
     K06F00E  C2006 03 23.11371 10 54 07.15 -06 49 47.5          16.8 R EF021I77
     K06F00E  C2006 03 23.11964 10 54 07.97 -06 49 03.7          16.8 R EF021I77
     K06F00E  C2006 03 23.24396 10 54 29.67 -06 34 45.4          17.2 R EF021854
     K06F00E  C2006 03 23.24486 10 54 29.79 -06 34 38.4          17.1 R EF021854
     K06F00E  C2006 03 23.24576 10 54 29.93 -06 34 32.0          17.1 R EF021854
     K06F00E  C2006 03 23.24667 10 54 30.09 -06 34 25.3          17.2 R EF021854
     K06F00E 2C2006 03 23.35790 10 54 45.32 -06 21 02.0          16.7 R EF021H06
     K06F00E 2C2006 03 23.36134 10 54 45.79 -06 20 37.0          16.7 R EF021H06
     K06F00E 2C2006 03 23.36478 10 54 46.31 -06 20 12.3          16.8 R EF021H06
     K06F00E  C2006 03 23.43729 10 55 02.02 -06 10 29.3          16.8 R EF021423
     K06F00E  C2006 03 23.44250 10 55 02.76 -06 09 52.3          16.7 R EF021423
     K06F00E  C2006 03 23.44771 10 55 03.48 -06 09 15.2          16.9 R EF021423
     K06F00E  C2006 03 23.45465 10 55 04.45 -06 08 26.4          17.0 R EF021423
     K06F00E  C2006 03 23.51580 10 55 12.97 -06 01 17.2          16.9 V EF021E12
     K06F00E  C2006 03 23.52501 10 55 14.19 -06 00 12.4          16.9 V EF021E12
     K06F00E  C2006 03 23.54322 10 55 16.64 -05 58 04.4          17.0 V EF021E12

Observer details:
423 North Ryde.  Observer S. G. McAndrew.  0.20-m f/4 hyperbolic astrograph
    + CCD.
704 Lincoln Laboratory ETS, New Mexico.  Observers M. Bezpalko, L. Manguso,
    D. Torres, R. Kracke, M. Blythe, H. Love.  Measurers J. Stuart, J. Kommers.
    1.0-m f/2.15 reflector + CCD.
854 Sabino Canyon Observatory, Tucson.  Observer J. E. McGaha.  0.36-m f/10.0
    Schmidt-Cassegrain + CCD.
E12 Siding Spring Survey.  Observer R. H. McNaught.  Measurers E. C. Beshore,
    E. J. Christensen, G. J. Garradd, A. R. Gibbs, A. D. Grauer, R. E. Hill,
    R. A. Kowalski, S. M. Larson, R. H. McNaught.  0.5-m Uppsala Schmidt + CCD.
H06 New Mexico Skies Observatory.  Observer R. Hutsebaut.  0.25-m reflector
    + CCD.
I77 CEAMIG-REA Observatory, Belo Horizonte.  Observers C. Jacques, E. Pimentel.
    Measurer C. Jacques.  0.30-m f/3.0 Schmidt-Cassegrain + CCD.
J95 Great Shefford.  Observer P. Birtwhistle.  0.40-m f/6.0 Schmidt-Cassegrain
    + CCD.

Orbital elements:
2006 FE                                                  Earth MOID = 0.0762 AU
Epoch 2006 Mar. 6.0 TT = JDT 2453800.5                  MPC
M  31.51583              (2000.0)            P               Q
n   0.61172004     Peri.  249.51143     +0.23684186     -0.97111540
a   1.3743613      Node   186.98213     +0.95636552     +0.23829262
e   0.5288981      Incl.   13.80040     +0.17108750     +0.01230910
P   1.61           H   20.2           G   0.15           U   8
Residuals in seconds of arc
060322 704  0.3-  0.8-    060323 I77  0.0   0.3-    060323 H06  0.1+  0.3-
060322 704  0.0   1.8+    060323 I77  0.2-  0.4-    060323 423  0.1-  0.1-
060322 704  0.1-  0.8-    060323 854  0.7+  0.1-    060323 423  0.0   0.0
060323 J95  0.0   0.1-    060323 854  0.7+  0.4+    060323 423  0.1-  0.2+
060323 J95  0.2-  0.2+    060323 854  0.9+  0.2+    060323 423  0.1-  0.1-
060323 J95  0.0   0.0     060323 854  1.4+  0.3+    060323 E12  0.0   0.0
060323 I77  0.1+  0.1+    060323 H06  0.1+  0.5-    060323 E12  0.4-  0.1+
060323 I77  0.2+  0.0     060323 H06  0.3-  0.3-    060323 E12  0.4-  0.2+

Ephemeris:
2006 FE                  a,e,i = 1.37, 0.53, 14                  q = 0.6475
Date    TT    R. A. (2000) Decl.     Delta      r     Elong.  Phase     V
2006 03 16    10 20.86   -30 01.7    0.0913   1.069   142.6    34.4    16.6
2006 03 26    11 00.94   -01 48.1    0.169    1.158   160.6    16.7    17.5
2006 04 05    11 15.85   +07 26.1    0.269    1.244   151.9    22.3    18.9
2006 04 15    11 26.26   +11 01.2    0.381    1.326   142.6    27.4    19.9
2006 04 25    11 35.87   +12 18.7    0.503    1.404   134.3    30.8    20.8
2006 05 05    11 45.81   +12 25.8    0.634    1.478   126.8    33.1    21.4
2006 05 15    11 56.43   +11 52.5    0.772    1.547   119.9    34.5    22.0

Timothy B. Spahr             (C) Copyright 2006 MPC           M.P.E.C. 2006-F21

Read MPEC 2006-F20 Read MPEC 2006-F22


MPEC number:

Enter an MPEC number in one of the following forms:

  • 1997-B01 (the full form)
  • J97B01 (the packed version of the full form)
  • B01 (the abbreviated form)

Valid HTML 4.01!